Date,TemperatureHighF,TemperatureAvgF,TemperatureLowF,DewpointHighF,DewpointAvgF,DewpointLowF,HumidityHigh,HumidityAvg,HumidityLow,PressureMaxIn,PressureMinIn,WindSpeedMaxMPH,WindSpeedAvgMPH,GustSpeedMaxMPH,PrecipitationSumIn
2014-2-1,45.1,38.0,32.5,38.7,33.4,27.9,92,84,71,30.61,30.49,2,0,2,0.00
2014-2-2,41.5,33.6,26.6,35.2,28.3,22.2,89,81,67,30.50,30.37,2,0,2,0.00
2014-2-3,37.0,32.3,26.4,30.4,22.1,13.2,84,67,41,30.61,30.44,2,0,2,0.00
2014-2-4,31.5,27.9,24.3,25.6,21.2,16.5,83,76,64,30.80,30.61,2,0,2,0.00
2014-2-5,37.6,25.1,19.0,16.9,1.3,-7.4,73,38,22,30.83,30.69,5,2,5,0.00
2014-2-6,30.9,23.8,17.2,17.1,8.3,-4.6,76,53,31,30.68,30.18,2,1,2,0.00
2014-2-7,42.1,26.0,16.2,25.5,17.2,8.5,77,69,47,30.33,30.16,2,0,2,0.00
2014-2-8,34.7,29.0,25.7,27.3,21.4,18.7,86,73,59,30.41,30.22,1,0,1,0.00
2014-2-9,35.4,32.1,28.8,30.6,28.1,25.1,89,85,79,30.50,30.38,2,0,2,0.00
2014-2-10,51.6,42.5,31.5,42.6,36.9,28.6,94,81,65,30.53,30.40,12,3,17,0.20
2014-2-11,52.3,46.2,39.4,43.7,40.2,36.4,91,80,59,30.57,29.95,27,2,27,0.44
2014-2-12,53.4,49.5,44.2,45.7,40.3,34.3,88,71,51,30.29,29.93,25,4,27,0.22
2014-2-13,55.6,47.4,41.2,43.8,38.0,31.5,83,70,49,30.54,30.18,13,3,13,0.04
2014-2-14,50.7,44.6,0.0,43.6,38.8,33.3,90,79,58,30.22,29.92,13,2,13,0.30
2014-2-15,51.8,40.0,34.5,47.1,35.5,29.9,93,84,70,29.98,29.31,19,2,19,0.64
2014-2-16,47.7,41.3,35.1,39.6,34.2,29.8,90,76,53,30.02,29.73,26,4,26,1.29
2014-2-17,45.9,41.4,38.1,40.3,36.5,34.0,93,83,68,29.99,29.75,12,2,12,1.04
2014-2-18,48.4,42.6,38.3,41.7,36.5,30.9,92,79,56,30.01,29.65,17,3,17,0.76
2014-2-19,46.4,39.0,34.2,36.2,33.4,29.3,88,80,59,30.20,29.93,14,2,14,0.26
2014-2-20,44.6,41.8,38.7,40.2,37.5,34.7,91,85,77,30.30,30.08,15,2,15,0.47
2014-2-21,45.0,40.0,33.6,36.1,32.3,27.0,90,75,49,30.32,30.26,4,1,4,0.02
2014-2-22,41.4,35.4,29.3,34.3,30.5,25.9,88,82,60,30.26,30.07,2,0,2,0.01
2014-2-23,45.3,40.6,36.1,39.3,36.8,31.7,92,86,68,30.09,29.94,3,0,3,0.07
2014-2-24,42.8,40.8,38.7,40.5,38.6,36.8,94,92,91,30.12,30.02,2,0,2,0.21
2014-2-25,47.3,41.9,37.6,43.3,39.5,35.7,93,91,86,30.13,30.00,2,0,2,0.00
2014-2-26,52.5,43.3,31.3,41.2,37.9,28.7,94,82,60,30.00,29.72,1,0,1,0.00
2014-2-27,60.3,46.0,36.9,41.5,38.3,33.6,93,76,42,29.79,29.67,4,0,6,0.01
2014-2-28,63.9,46.6,36.1,41.9,37.9,32.2,92,73,40,29.78,29.50,3,0,3,0.00